Location: Hradec Kralove
(50.2170°N, 15.8330°E)
Time: 07:09:44
(UTC+01:00)

Altair - All Passes

Search period start: 06 February 2023 00:00
Search period end: 16 February 2023 00:00
Orbit: 1501 x 1683 km, 47.2° (Epoch: 05 February)

Date Brightness Start Highest point End Pass type
(mag) Time Alt. Az. Time Alt. Az. Time Alt. Az.
06 Feb - 01:11:24 10° W 01:20:03 34° SW 01:28:46 10° SSE night (unlit)
06 Feb - 16:33:26 10° SSE 16:39:31 19° SE 16:45:43 10° E daylight
06 Feb - 18:33:19 10° SW 18:42:23 49° SSE 18:51:49 10° E visible
06 Feb - 20:36:49 10° WSW 20:46:34 75° S 20:56:38 10° E visible
06 Feb - 22:41:19 10° W 22:51:08 67° SSW 23:01:10 10° ESE visible
07 Feb - 00:46:08 10° W 00:54:57 36° SW 01:03:51 10° SSE night (unlit)
07 Feb - 02:55:55 10° WSW 02:57:22 10° WSW 02:58:50 10° SW night (unlit)
07 Feb - 16:08:57 10° SSE 16:14:30 17° SE 16:20:10 10° E daylight
07 Feb - 18:08:19 10° SW 18:17:16 47° SSE 18:26:34 10° ENE visible
07 Feb - 20:11:40 10° WSW 20:21:22 74° S 20:31:24 10° E visible
07 Feb - 22:16:08 10° W 22:25:56 69° SSW 22:35:59 10° ESE visible
08 Feb - 00:20:53 10° W 00:29:49 39° SW 00:38:53 10° SSE visible
08 Feb - 02:29:07 10° WSW 02:32:22 12° WSW 02:35:38 10° SW night (unlit)
08 Feb - 15:44:34 10° SSE 15:49:30 15° SE 15:54:31 10° E daylight
08 Feb - 17:43:20 10° SW 17:52:09 44° SE 18:01:19 10° ENE visible
08 Feb - 19:46:31 10° WSW 19:56:10 73° S 20:06:10 10° E visible
08 Feb - 21:50:57 10° W 22:00:44 70° SSW 22:10:48 10° ESE visible
08 Feb - 23:55:39 10° WNW 00:04:42 41° SW 00:13:54 10° SSE visible
09 Feb - 02:03:04 10° W 02:07:21 14° WSW 02:11:40 10° SSW night (unlit)
09 Feb - 15:20:20 10° SSE 15:24:30 14° ESE 15:28:44 10° E daylight
09 Feb - 17:18:22 10° SSW 17:27:02 42° SE 17:36:02 10° ENE visible
09 Feb - 19:21:22 10° WSW 19:30:58 71° SSE 19:40:56 10° E visible
09 Feb - 21:25:46 10° W 21:35:32 72° SSW 21:45:36 10° ESE visible
09 Feb - 23:30:25 10° WNW 23:39:35 43° SW 23:48:54 10° SSE visible
10 Feb - 01:37:16 10° W 01:42:20 15° SW 01:47:26 10° SSW night (unlit)
10 Feb - 14:56:21 10° SE 14:59:31 12° ESE 15:02:43 10° ESE daylight
10 Feb - 16:53:25 10° SSW 17:01:57 39° SE 17:10:46 10° E daylight
10 Feb - 18:56:15 10° WSW 19:05:46 70° SSE 19:15:42 10° E visible
10 Feb - 21:00:35 10° W 21:10:20 73° S 21:20:23 10° ESE visible
10 Feb - 23:05:12 10° WNW 23:14:27 46° SSW 23:23:52 10° SE visible
11 Feb - 01:11:37 10° W 01:17:18 17° SW 01:23:02 10° SSW night (unlit)
11 Feb - 14:33:05 10° SE 14:34:33 10° ESE 14:36:00 10° ESE daylight
11 Feb - 16:28:30 10° SSW 16:36:51 37° SE 16:45:30 10° E daylight
11 Feb - 18:31:08 10° WSW 18:40:35 68° SSE 18:50:27 10° E visible
11 Feb - 20:35:24 10° W 20:45:07 74° S 20:55:10 10° ESE visible
11 Feb - 22:40:00 10° W 22:49:18 48° SSW 22:58:49 10° SE visible
12 Feb - 00:46:05 10° W 00:52:16 19° SW 00:58:32 10° SSW night (unlit)
12 Feb - 16:03:37 10° SSW 16:11:47 35° SE 16:20:12 10° E daylight
12 Feb - 18:06:01 10° WSW 18:15:25 66° SSE 18:25:13 10° E visible
12 Feb - 20:10:14 10° W 20:19:55 75° S 20:29:57 10° ESE visible
12 Feb - 22:14:47 10° W 22:24:09 50° SSW 22:33:45 10° SE visible
13 Feb - 00:20:36 10° W 00:27:13 20° SW 00:33:57 10° S visible
13 Feb - 15:38:46 10° SSW 15:46:43 32° SE 15:54:55 10° E daylight
13 Feb - 17:40:55 10° WSW 17:50:15 65° SSE 18:00:00 10° E visible
13 Feb - 19:45:04 10° W 19:54:43 75° S 20:04:44 10° ESE visible
13 Feb - 21:49:36 10° W 21:59:00 53° SSW 22:08:39 10° SE visible
13 Feb - 23:55:10 10° W 00:02:10 22° SW 00:09:17 10° S visible
14 Feb - 15:13:56 10° SSW 15:21:39 30° SE 15:29:37 10° E daylight
14 Feb - 17:15:49 10° WSW 17:25:05 62° SSE 17:34:45 10° E daylight
14 Feb - 19:19:54 10° W 19:29:31 76° S 19:39:30 10° E visible
14 Feb - 21:24:24 10° W 21:33:51 55° SSW 21:43:33 10° SE visible
14 Feb - 23:29:47 10° W 23:37:08 24° SW 23:44:34 10° S visible
15 Feb - 14:49:09 10° S 14:56:36 28° SE 15:04:17 10° E daylight
15 Feb - 16:50:45 10° SW 16:59:56 60° SSE 17:09:31 10° E daylight
15 Feb - 18:54:44 10° W 19:04:19 76° S 19:14:17 10° E visible
15 Feb - 20:59:13 10° W 21:08:41 57° SSW 21:18:26 10° SE visible
15 Feb - 23:04:26 10° W 23:12:04 26° SW 23:19:48 10° S visible
